Tracking 19242 objects as of 20-Sep-2018
HD Live streaming from Space Station
objects crossing your sky now

FENGYUN 1C DEB

Track FENGYUN 1C DEB now!
10-day predictions


NORAD ID: 41822
Int'l Code: 1999-025EXZ
Perigee: 814.1 km
Apogee: 910.2 km
Inclination: 98.9 °
Period: 102.0 minutes
Semi major axis: 7233 km
RCS: Unknown
Launch date: May 10, 1999
Source: People's Republic of China (PRC)
Launch site: Taiyaun Space Center, China (TSC)

Note: This is SATELLITE DEBRIS
aabbcc
Your satellite tracking list
Your tracking list is empty




NASA's NSSDC Master Catalog

Two Line Element Set (TLE):
1 41822U 99025EXZ 18263.11724465  .00000482  00000-0  28533-3 0  9990
2 41822  98.9263 320.0847 0066436 179.7207 180.4013 14.11285964100276
Source of the keplerian elements: AFSPC